Tracking 30516 objects as of 20-May-2025
HD Live streaming from Space Station
objects crossing your sky now

STARLINK-6113

Track STARLINK-6113 now!
10-day predictions
STARLINK-6113 is classified as:


NORAD ID: 56113
Int'l Code: 2023-046W
Perigee: 565.4 km
Apogee: 567.0 km
Inclination: 43.0 °
Period: 95.8 minutes
Semi major axis: 6937 km
RCS: Unknown
Launch date: March 29, 2023
Source: United States (US)
Launch site: AIR FORCE EASTERN TEST RANGE (AFETR)
Your satellite tracking list
Your tracking list is empty




NASA's NSSDC Master Catalog

Two Line Element Set (TLE):
1 56113U 23046W   25140.16932864  .00000081  00000-0  21096-4 0  9993
2 56113  43.0020 313.4512 0001149 266.9924  93.0787 15.02534673117918
Source of the keplerian elements: AFSPC